Location: Recife
(8.0585°S, 34.8848°W)
Time: 12:10:36
(UTC-03:00)

Vanguard 2 - Pass Details

Date: 16 April 2026
Orbit: 554 x 2894 km, 32.9° (Epoch: 7 May)

Event Time Altitude Azimuth Distance (km) Brightness Sun altitude
Rises 21:28:32 0° 279° (W) 5,448 12.3 -62.6°
Reaches altitude 10° 21:31:58 10° 272° (W) 4,730 11.8 -63.4°
Enters shadow 21:37:48 29° 254° (WSW) 3,785 11.0 -64.9°
Maximum altitude 21:45:31 45° 204° (SSW) 3,415 - -66.8°
Drops below altitude 10° 22:02:08 10° 135° (SE) 5,669 - -70.8°
Sets 22:06:49 0° 129° (SE) 6,570 - -72.0°
